Location: Kellogg
(38.0159°N, 90.0546°W)
Time: 22:09:49
(UTC+00:00)

Vanguard 1 - Pass Details

Date: 19 September 2024
Orbit: 648 x 3825 km, 34.3° (Epoch: 12 October)

Event Time Altitude Azimuth Distance (km) Brightness Sun altitude
Rises 13:59:44 0° 203° (SSW) 7,921 14.7 25.1°
Reaches altitude 10° 14:06:59 10° 193° (SSW) 6,697 14.5 26.4°
Maximum altitude 14:22:02 26° 147° (SSE) 4,586 14.7 29.1°
Drops below altitude 10° 14:32:43 10° 98° (E) 4,733 14.9 31.0°
Sets 14:36:34 0° 86° (E) 5,291 14.6 31.7°
